Total_Precipitation_Accumulation
0.11 0.18 0.21 0.25 0.21 0.15 0.12 0.12 0.20 0.24 0.32 0.36 0.28 0.30 0.36 0.31 0.23 0.20 0.24 0.21 0.19 0.16 0.18 0.24 0.30 0.35 0.38 0.44 0.49 0.55 0.72 0.87 1.03 1.20 1.08 0.88 0.78 0.69 0.63 0.64 0.68 0.81 0.93 1.03
0.11 0.15 0.18 0.22 0.23 0.17 0.14 0.13 0.11 0.17 0.30 0.32 0.33 0.32 0.36 0.33 0.30 0.26 0.33 0.34 0.30 0.34 0.30 0.32 0.36 0.37 0.37 0.40 0.47 0.56 0.69 0.78 0.88 0.95 0.86 0.71 0.57 0.54 0.59 0.62 0.67 0.74 0.80 0.87
0.19 0.17 0.19 0.24 0.22 0.19 0.16 0.18 0.18 0.25 0.32 0.30 0.36 0.33 0.34 0.33 0.32 0.28 0.24 0.29 0.33 0.30 0.31 0.32 0.35 0.35 0.35 0.36 0.47 0.68 0.76 0.75 0.80 0.86 0.81 0.69 0.53 0.50 0.52 0.59 0.68 0.73 0.73 0.74
0.31 0.33 0.38 0.28 0.26 0.24 0.22 0.26 0.27 0.30 0.31 0.34 0.43 0.39 0.28 0.26 0.28 0.30 0.29 0.28 0.31 0.34 0.32 0.30 0.30 0.33 0.34 0.36 0.48 0.64 0.75 0.78 0.87 0.94 0.89 0.80 0.70 0.64 0.66 0.71 0.73 0.73 0.72 0.72
0.50 0.49 0.39 0.36 0.36 0.37 0.38 0.47 0.43 0.39 0.34 0.36 0.38 0.40 0.35 0.25 0.22 0.26 0.27 0.30 0.30 0.32 0.34 0.33 0.36 0.39 0.43 0.47 0.56 0.70 0.83 0.91 0.95 1.03 1.06 1.02 1.01 1.01 1.00 0.96 0.88 0.82 0.79 0.79
0.56 0.62 0.60 0.56 0.48 0.43 0.51 0.79 0.74 0.60 0.48 0.40 0.45 0.65 0.62 0.38 0.31 0.28 0.28 0.32 0.37 0.37 0.35 0.36 0.38 0.44 0.56 0.65 0.72 0.82 0.94 1.05 1.09 1.21 1.28 1.22 1.22 1.26 1.24 1.24 1.17 1.11 1.00 0.96
0.61 0.70 0.73 0.68 0.50 0.48 0.88 1.12 0.86 0.72 0.64 0.58 0.60 0.62 0.59 0.48 0.41 0.36 0.34 0.36 0.39 0.44 0.38 0.40 0.48 0.60 0.73 0.80 0.83 0.85 0.91 0.99 1.11 1.31 1.45 1.51 1.59 1.64 1.58 1.51 1.45 1.36 1.21 1.14
0.79 0.96 0.97 0.66 0.60 0.81 0.97 0.89 0.89 0.86 0.83 0.82 0.70 0.54 0.47 0.43 0.39 0.38 0.36 0.32 0.30 0.34 0.38 0.44 0.54 0.69 0.83 0.88 0.86 0.90 0.93 1.01 1.19 1.37 1.42 1.46 1.67 1.75 1.72 1.65 1.54 1.44 1.35 1.23
0.92 1.01 0.85 0.71 0.75 0.78 0.88 0.92 0.89 0.88 0.92 0.83 0.72 0.57 0.49 0.44 0.37 0.33 0.30 0.29 0.27 0.30 0.38 0.50 0.63 0.79 0.98 1.04 1.03 1.01 1.07 1.15 1.28 1.37 1.48 1.61 1.71 1.71 1.68 1.63 1.53 1.41 1.35 1.27
0.93 0.92 0.77 0.76 0.78 0.76 0.78 0.80 0.83 0.76 0.74 0.70 0.70 0.59 0.50 0.39 0.32 0.27 0.25 0.25 0.26 0.30 0.37 0.50 0.66 0.82 0.93 0.97 0.99 1.02 1.05 1.11 1.20 1.30 1.36 1.47 1.61 1.58 1.51 1.49 1.49 1.45 1.40 1.33
0.87 0.89 0.87 0.86 0.90 0.81 0.71 0.64 0.58 0.53 0.55 0.60 0.64 0.61 0.49 0.36 0.31 0.24 0.21 0.20 0.23 0.37 0.49 0.57 0.69 0.81 0.85 0.86 0.91 0.98 0.98 0.99 1.06 1.14 1.27 1.41 1.49 1.55 1.49 1.43 1.32 1.30 1.29 1.29
0.91 0.87 0.86 0.99 0.99 0.88 0.69 0.61 0.56 0.51 0.51 0.53 0.55 0.55 0.47 0.38 0.31 0.25 0.21 0.21 0.27 0.37 0.49 0.58 0.70 0.84 0.88 0.90 0.98 1.07 1.06 1.02 1.01 1.04 1.11 1.19 1.29 1.30 1.22 1.10 0.99 0.92 0.88 0.88
0.71 0.67 0.70 0.79 0.77 0.71 0.66 0.65 0.65 0.61 0.58 0.52 0.52 0.46 0.39 0.32 0.28 0.25 0.23 0.24 0.28 0.33 0.39 0.47 0.58 0.73 0.85 0.98 1.08 1.13 1.12 1.09 1.06 1.00 1.03 1.10 1.17 1.23 1.23 1.06 0.89 0.77 0.67 0.63
0.58 0.53 0.58 0.59 0.58 0.56 0.57 0.57 0.56 0.53 0.51 0.48 0.47 0.42 0.36 0.31 0.27 0.25 0.25 0.24 0.25 0.27 0.33 0.42 0.52 0.60 0.70 0.88 1.04 1.10 1.10 1.07 1.04 1.03 1.01 1.05 1.09 1.11 1.18 1.23 1.13 0.95 0.76 0.62
0.70 0.55 0.54 0.49 0.45 0.47 0.44 0.42 0.41 0.39 0.37 0.36 0.36 0.34 0.31 0.29 0.27 0.25 0.24 0.24 0.28 0.31 0.35 0.44 0.54 0.61 0.73 0.87 0.95 0.98 1.00 0.98 0.96 0.98 1.00 1.00 1.04 1.06 1.07 1.14 1.14 1.08 0.94 0.77
0.62 0.48 0.40 0.37 0.38 0.41 0.39 0.39 0.37 0.35 0.32 0.29 0.27 0.25 0.24 0.22 0.23 0.24 0.25 0.29 0.39 0.42 0.46 0.57 0.62 0.66 0.79 0.92 1.00 1.00 0.98 0.92 0.87 0.89 0.93 0.95 0.97 1.01 1.00 1.06 1.08 1.09 1.00 0.84
0.56 0.42 0.33 0.31 0.30 0.34 0.36 0.34 0.31 0.29 0.26 0.24 0.23 0.20 0.17 0.18 0.22 0.25 0.27 0.30 0.37 0.43 0.51 0.65 0.68 0.68 0.81 0.94 1.05 1.04 0.97 0.88 0.77 0.76 0.80 0.85 0.91 0.93 0.93 0.96 0.98 1.01 0.91 0.72
0.42 0.37 0.34 0.33 0.31 0.30 0.31 0.29 0.27 0.26 0.26 0.24 0.22 0.21 0.23 0.29 0.38 0.43 0.43 0.43 0.47 0.45 0.47 0.59 0.65 0.71 0.80 0.89 0.98 1.01 0.99 0.92 0.79 0.69 0.67 0.74 0.81 0.86 0.89 0.88 0.89 0.89 0.81 0.61
0.29 0.31 0.32 0.33 0.34 0.32 0.31 0.30 0.31 0.31 0.31 0.28 0.27 0.30 0.34 0.41 0.52 0.59 0.60 0.64 0.69 0.67 0.60 0.57 0.62 0.65 0.74 0.80 0.84 0.94 0.91 0.85 0.76 0.60 0.59 0.65 0.73 0.82 0.83 0.79 0.81 0.80 0.72 0.60
0.22 0.22 0.23 0.33 0.44 0.47 0.47 0.45 0.44 0.43 0.39 0.37 0.38 0.42 0.48 0.52 0.61 0.71 0.74 0.71 0.71 0.76 0.71 0.62 0.58 0.61 0.66 0.70 0.73 0.79 0.77 0.77 0.74 0.56 0.53 0.66 0.75 0.81 0.79 0.72 0.74 0.72 0.63 0.59
0.18 0.15 0.16 0.19 0.26 0.33 0.36 0.35 0.36 0.40 0.42 0.47 0.57 0.66 0.73 0.70 0.72 0.84 0.94 0.83 0.67 0.69 0.67 0.60 0.54 0.54 0.57 0.68 0.71 0.74 0.71 0.70 0.73 0.62 0.54 0.63 0.73 0.77 0.75 0.68 0.65 0.59 0.54 0.55
0.20 0.16 0.18 0.19 0.19 0.20 0.19 0.19 0.26 0.37 0.45 0.51 0.58 0.71 0.85 0.91 0.94 0.92 0.84 0.82 0.74 0.72 0.64 0.57 0.51 0.48 0.48 0.55 0.67 0.71 0.70 0.69 0.72 0.69 0.62 0.63 0.70 0.73 0.72 0.64 0.58 0.53 0.50 0.53
0.19 0.16 0.14 0.14 0.15 0.17 0.17 0.18 0.22 0.31 0.40 0.48 0.57 0.76 0.93 0.98 1.07 1.21 1.03 0.76 0.69 0.70 0.64 0.54 0.50 0.46 0.43 0.42 0.56 0.64 0.64 0.69 0.71 0.71 0.67 0.62 0.60 0.63 0.64 0.58 0.53 0.52 0.56 0.58
0.20 0.16 0.14 0.13 0.14 0.16 0.20 0.22 0.24 0.30 0.38 0.45 0.54 0.71 0.93 1.10 1.06 0.96 0.91 0.78 0.67 0.60 0.58 0.52 0.44 0.41 0.39 0.36 0.44 0.53 0.59 0.63 0.61 0.59 0.57 0.54 0.57 0.61 0.58 0.55 0.53 0.55 0.59 0.61
0.19 0.17 0.15 0.15 0.19 0.24 0.31 0.37 0.39 0.43 0.51 0.53 0.53 0.59 0.70 0.94 1.10 0.93 0.75 0.68 0.63 0.54 0.53 0.53 0.46 0.40 0.36 0.34 0.36 0.43 0.49 0.53 0.51 0.51 0.49 0.52 0.56 0.55 0.50 0.48 0.50 0.53 0.57 0.61
0.16 0.15 0.15 0.16 0.21 0.31 0.43 0.56 0.65 0.69 0.78 0.83 0.74 0.67 0.68 0.76 0.87 0.86 0.73 0.62 0.58 0.55 0.50 0.50 0.47 0.42 0.38 0.36 0.34 0.38 0.44 0.50 0.53 0.52 0.48 0.53 0.52 0.50 0.50 0.52 0.49 0.49 0.51 0.52
0.16 0.14 0.16 0.19 0.25 0.36 0.51 0.66 0.80 0.89 0.98 1.07 1.01 0.85 0.78 0.76 0.79 0.80 0.73 0.66 0.62 0.61 0.58 0.55 0.53 0.50 0.47 0.43 0.38 0.37 0.43 0.50 0.54 0.55 0.54 0.57 0.60 0.60 0.56 0.53 0.49 0.46 0.45 0.41